Location: Rounton
(54.4000°N, 1.3500°W)
Time: 12:53:07
(UTC+00:00)

Transit 2A Rocket - Pass Details

Date: 06 December 2021
Orbit: 584 x 918 km, 66.7° (Epoch: 17 January)

Event Time Altitude Azimuth Distance (km) Brightness Sun altitude
Rises 06:38:56 0° 183° (S) 3,351 8.6 -12.3°
Reaches altitude 10° 06:41:32 10° 174° (S) 2,469 8.0 -11.9°
Maximum altitude 06:46:34 32° 113° (ESE) 1,478 7.3 -11.2°
Drops below altitude 10° 06:51:51 10° 53° (NE) 2,606 8.1 -10.5°
Sets 06:54:40 0° 44° (NE) 3,565 8.7 -10.2°
